Weather History for Minneapolis, MN

Change the Weather History Date:

Wednesday, October 8, 2014

  Actual Average Record
Temperature  
Mean Temperature 49 °F 52 °F  
Max Temperature 59 °F 62 °F 87 °F (2010)
Min Temperature 39 °F 43 °F 23 °F (1876)
Degree Days  
Heating Degree Days 16 13  
Month to date heating degree days 130 94  
Since 1 July heating degree days 261 267  
Cooling Degree Days 0 0  
Month to date cooling degree days 0 3  
Year to date cooling degree days 759 750  
Moisture  
Dew Point 32 °F    
Average Humidity 55    
Maximum Humidity 79    
Minimum Humidity 30    
Precipitation  
Precipitation 0.00 in 0.09 in 1.43 in (1970)
Month to date precipitation 1.59 0.76  
Year to date precipitation 33.51 26.01  
Snow  
Snow 0.00 in 0.00 in 0.30 in (1959)
Month to date snowfall 0.0 0.0  
Since 1 July snowfall 0.0 T  
Since 1 September snowfall 0.0 T  
Snow Depth 0.00 in    
Sea Level Pressure  
Sea Level Pressure 29.99 in    
Wind  
Wind Speed 10 mph (WNW)    
Max Wind Speed 21 mph    
Max Gust Speed 29 mph    
Visibility 10 miles    
Events      
T = Trace of Precipitation, MM = Missing Value Source: NWS Daily Summary

Daily Weather History Graph

Daily Weather History Graph

Search for Another Location

Airport:

Trip Planner

Search our weather history database for the weather conditions in past years. The results will help you decide how hot, cold, wet, or windy it might be!

Date:

Astronomy

Oct. 08, 2014 Rise Set
Actual Time 7:19 AM CDT 6:40 PM CDT
Civil Twilight 6:50 AM CDT 7:09 PM CDT
Nautical Twilight 6:16 AM CDT 7:43 PM CDT
Astronomical Twilight 5:42 AM CDT 8:17 PM CDT
Moon 6:54 PM CDT (10/8) 7:27 AM CDT (10/8)
Length of Visible Light 12h 19m
Length of Day
11h 20m
Full, 100% of the Moon is Illuminated
Oct 8
Full
Oct 15
Last Quarter
Oct 23
New
Oct 30
First Quarter
Nov 6
Full

Hourly Weather History & Observations

Time (CDT) Temp. Windchill Dew Point Humidity Pressure Visibility Wind Dir Wind Speed Gust Speed Precip Events Conditions
12:53 AM 46.0 °F 41.9 °F 30.9 °F 56% 29.88 in 10.0 mi West 8.1 mph - N/A   Partly Cloudy
1:53 AM 46.0 °F 41.4 °F 32.0 °F 58% 29.89 in 10.0 mi WSW 9.2 mph - N/A   Partly Cloudy
2:53 AM 46.0 °F 41.9 °F 34.0 °F 63% 29.90 in 10.0 mi WSW 8.1 mph - N/A   Mostly Cloudy
3:53 AM 45.0 °F 40.1 °F 36.0 °F 71% 29.91 in 10.0 mi WSW 9.2 mph - N/A   Scattered Clouds
4:53 AM 43.0 °F 37.2 °F 36.0 °F 76% 29.92 in 10.0 mi WSW 10.4 mph - N/A   Partly Cloudy
5:53 AM 42.1 °F 36.6 °F 36.0 °F 79% 29.94 in 10.0 mi West 9.2 mph - N/A   Partly Cloudy
6:53 AM 42.1 °F 37.7 °F 35.1 °F 76% 29.96 in 10.0 mi West 6.9 mph - N/A   Partly Cloudy
7:53 AM 41.0 °F 38.0 °F 35.1 °F 79% 29.99 in 10.0 mi West 4.6 mph - N/A   Partly Cloudy
8:53 AM 45.0 °F 41.2 °F 36.0 °F 71% 29.99 in 10.0 mi West 6.9 mph - N/A   Scattered Clouds
9:53 AM 48.0 °F - 36.0 °F 63% 30.00 in 10.0 mi West 9.2 mph - N/A   Mostly Cloudy
10:53 AM 52.0 °F - 35.1 °F 53% 30.01 in 10.0 mi WNW 11.5 mph - N/A   Scattered Clouds
11:53 AM 54.0 °F - 33.1 °F 45% 30.02 in 10.0 mi NW 16.1 mph - N/A   Partly Cloudy
12:53 PM 55.9 °F - 34.0 °F 44% 30.02 in 10.0 mi WNW 17.3 mph 23.0 mph N/A   Partly Cloudy
1:53 PM 57.0 °F - 32.0 °F 39% 30.01 in 10.0 mi WNW 18.4 mph - N/A   Partly Cloudy
2:53 PM 59.0 °F - 32.0 °F 36% 30.01 in 10.0 mi WNW 16.1 mph 28.8 mph N/A   Partly Cloudy
3:53 PM 57.9 °F - 30.9 °F 36% 30.01 in 10.0 mi NW 20.7 mph - N/A   Scattered Clouds
4:53 PM 55.0 °F - 25.0 °F 31% 30.01 in 10.0 mi NW 15.0 mph 26.5 mph N/A   Mostly Cloudy
5:53 PM 54.0 °F - 28.9 °F 38% 30.02 in 10.0 mi NW 12.7 mph - N/A   Mostly Cloudy
6:53 PM 50.0 °F - 28.9 °F 44% 30.03 in 10.0 mi NW 9.2 mph - N/A   Mostly Cloudy
7:53 PM 48.0 °F - 28.9 °F 48% 30.06 in 10.0 mi NW 5.8 mph - N/A   Mostly Cloudy
8:53 PM 46.0 °F 42.5 °F 28.9 °F 51% 30.07 in 10.0 mi NW 6.9 mph - N/A   Mostly Cloudy
9:53 PM 44.6 °F 42.2 °F 30.2 °F 57% 30.07 in 10.0 mi WNW 4.6 mph - N/A   Mostly Cloudy
10:53 PM 42.1 °F 39.2 °F 30.0 °F 62% 30.10 in 10.0 mi WNW 4.6 mph - N/A   Mostly Cloudy
11:53 PM 41.0 °F 35.8 °F 28.9 °F 62% 30.11 in 10.0 mi NW 8.1 mph - N/A   Scattered Clouds